UPSVAC Airport Information Service

Cologne Bonn Airport (300-399)

ICAO: EDDK Country: Germany
Latitude: 50.866 Longitude: 7.143
Latest Arrival : UPSJUMP (BIKF-EDDK) Latest Departure : UPSJUMP (EDDK-OMDB)


WX CaptureLIVE
Data provided by noaa.gov | Fetched at 17:39:07

METAR : EDDK 281720Z 22010KT 190V250 CAVOK 22/12 Q1011 NOSIG

TAF : EDDK 281100Z 2812/2918 24011KT 9999 FEW040 BECMG 2818/2822 18006KT BECMG 2905/2909 24012KT


Runway Data for EDDK
Data provided by openaviationdata.com

Runway ID Mag Var Hdg Length Elevation Surface ILS Freq ILS Id ILS Slope
7 0 64° 8050 ft 254 ft Concrete -- -- --
14L 0 137° 12496 ft 254 ft Asphalt 110.9 IKES 3
14R 0 137° 6101 ft 254 ft Concrete -- -- --
25 0 244° 8050 ft 254 ft Concrete 109.1 IKOW 3
32L 0 317° 6101 ft 254 ft Concrete -- -- --
32R 0 317° 12496 ft 254 ft Asphalt 109.7 IKEN 3

Cologne Bonn Airport (300-399), Germany
Use only for reference purposes



Not for navigational purposes.